PST,Max TemperatureF,Mean TemperatureF,Min TemperatureF,Max Dew PointF,MeanDew PointF,Min DewpointF,Max Humidity, Mean Humidity, Min Humidity, Max Sea Level PressureIn, Mean Sea Level PressureIn, Min Sea Level PressureIn, Max VisibilityMiles, Mean VisibilityMiles, Min VisibilityMiles, Max Wind SpeedMPH, Mean Wind SpeedMPH, Max Gust SpeedMPH,PrecipitationIn, CloudCover, Events, WindDirDegrees
2013-11-1,62,54,48,33,28,22,46,37,27,30.15,30.09,30.03,10,10,10,8,3,,0.00,0,,135
2013-11-2,57,50,44,38,29,18,76,46,26,30.02,29.95,29.88,10,10,10,15,6,20,0.00,4,,174
2013-11-3,51,46,39,39,33,21,86,65,44,30.00,29.89,29.84,10,10,10,9,3,,0.00,2,,119
2013-11-4,48,42,35,18,15,10,48,36,22,30.06,29.94,29.81,10,10,10,12,8,24,0.00,0,,49
2013-11-5,55,48,41,28,21,10,44,33,27,30.19,30.13,30.02,10,10,10,14,9,31,0.00,0,,44
2013-11-6,60,55,50,36,30,23,54,41,30,30.23,30.20,30.17,10,10,10,7,4,,0.00,0,,60
2013-11-7,57,52,48,24,18,10,37,27,21,30.18,30.12,30.06,10,10,10,14,8,,0.00,0,,154
2013-11-8,57,52,48,34,27,15,52,40,26,30.07,30.02,29.96,10,10,10,12,5,18,0.00,0,,152
2013-11-9,59,54,50,31,28,24,46,37,28,30.04,30.01,29.96,10,10,10,9,4,,0.00,0,,133
2013-11-10,61,56,50,25,15,6,38,22,13,30.12,30.07,30.02,10,10,10,15,6,,0.00,0,,144
2013-11-11,63,58,53,20,13,3,25,18,13,30.16,30.10,30.06,10,10,10,12,5,20,0.00,0,,131
2013-11-12,61,56,52,34,22,12,44,27,18,30.25,30.21,30.14,10,10,10,7,4,,0.00,6,,112
2013-11-13,64,58,52,35,29,23,41,34,29,30.20,30.14,30.07,10,10,10,8,4,,0.00,0,,358
2013-11-14,57,51,44,36,29,23,73,42,30,30.06,29.94,29.76,10,10,10,10,3,,0.00,0,,235
2013-11-15,52,46,39,36,29,23,82,56,32,29.76,29.72,29.68,10,10,10,10,4,18,0.00,0,,307
2013-11-16,46,42,37,32,28,24,76,61,44,29.89,29.79,29.69,10,10,10,13,6,,0.00,2,,150
2013-11-17,51,45,39,34,30,24,67,56,48,30.02,29.96,29.88,10,10,10,8,4,,0.00,0,,150
2013-11-18,48,44,39,37,36,33,89,74,58,30.17,30.10,30.01,10,10,10,16,10,22,0.00,5,,163
2013-11-19,42,40,37,41,39,36,100,97,82,30.10,30.04,29.94,10,4,0,13,8,17,1.03,8,Fog-Rain,155
2013-11-20,42,39,36,42,39,35,100,98,89,29.98,29.91,29.81,10,2,0,12,6,17,1.31,8,Fog-Rain,165
2013-11-21,37,35,33,35,22,7,89,60,31,29.97,29.90,29.84,10,10,10,26,12,59,0.00,3,,62
2013-11-22,46,40,33,5,-1,-6,26,18,11,30.04,29.99,29.96,10,10,10,23,17,50,0.00,0,Rain,62
2013-11-23,52,44,37,12,7,2,28,22,19,30.07,30.03,29.98,10,10,10,10,6,20,0.00,0,,81
2013-11-24,48,44,39,32,17,6,67,37,22,30.20,30.13,30.05,10,10,10,10,6,21,0.00,0,,20
2013-11-25,48,44,41,35,25,8,73,47,22,30.27,30.24,30.19,10,10,10,6,2,,0.00,0,,153
2013-11-26,57,51,45,36,25,11,68,39,16,30.24,30.14,30.01,10,10,10,7,4,,0.00,0,,144
2013-11-27,52,49,46,30,25,20,52,40,34,30.01,29.93,29.87,10,10,10,10,5,17,0.00,0,,110
2013-11-28,51,48,44,31,28,25,56,47,38,30.06,29.95,29.88,10,10,10,8,3,,0.00,0,,349
2013-11-29,53,48,42,34,30,25,65,52,37,30.20,30.13,30.06,10,10,10,7,3,,0.00,0,,6
2013-11-30,53,48,44,34,29,21,56,47,39,30.23,30.21,30.17,10,10,10,8,3,,0.00,1,,12